Current Weather Conditions by Major Hwy


I-84 West to East [Columbia River Gorge] 700 PM PST MON FEB 24 2020 ELEVA CITY SKY/WX TMP DP RH WIND PRES REMARKS 10 ASTORIA, OR CLOUDY 42 38 85 CALM 30.61R 20 KELSO CLOUDY 46 38 73 CALM 30.62S 40 PORTLAND, OR CLOUDY 47 36 65 E3 30.62S 30 TROUTDALE, OR CLOUDY 47 35 63 E3 30.62S 240 THE DALLES, OR CLOUDY 44 33 65 NW15 30.56R 620 HERMISTON, OR PTCLDY 43 29 57 SW12 30.51R 1,480 PENDLETON, OR PTCLDY 39 27 62 W12 30.49R 2,710 LA GRANDE MOCLDY 35 24 64 NW5 30.48R 3,370 BAKER CITY PTCLDY 32 20 61 CALM 30.44R 2,190 ONTARIO CLEAR 34 19 54 NW7 30.47R
I-90 West to East 700 PM PST MON FEB 24 2020 ELEVA CITY SKY/WX TMP DP RH WIND PRES REMARKS 30 SEATAC AIRPORT MOCLDY 44 32 62 NE7 30.60R 1,730 ELLENSBURG PTCLDY 37 25 61 NW15 30.49R 1,200 MOSES LAKE CLEAR 41 23 48 W8 30.47R 1,880 SPOKANE GEIGER PTCLDY 34 20 56 SW6 30.42R
I-82 North West to South East 700 PM PST MON FEB 24 2020 ELEVA CITY SKY/WX TMP DP RH WIND PRES REMARKS 1,730 ELLENSBURG PTCLDY 37 25 61 NW15 30.49R 1,050 YAKIMA TC FAIR 39 20 46 N9 30.49R 720 360 PASCO CLEAR 39 23 52 NW9 30.52R 620 HERMISTON, OR PTCLDY 43 29 57 SW12 30.51R
Hwy97 North to South 700 PM PST MON FEB 24 2020 ELEVA CITY SKY/WX TMP DP RH WIND PRES REMARKS 850 OMAK CLEAR 38 19 46 N9 30.46R 630 WENATCHEE PTCLDY 39 19 44 W15 30.48R 1,730 ELLENSBURG PTCLDY 37 25 61 NW15 30.49R 1,050 YAKIMA TC FAIR 39 20 46 N9 30.49R 1,640 GOLDENDALE* CLOUDY 44 33 65 NW15 30.56R *From Dallesport Airport Elev 240 3,080 REDMOND CLOUDY 37 20 50 CALM 30.47R 4,100 KLAMATH FALLS CLEAR 40 18 41 NW13 30.43R
I-5 North to South 700 PM PST MON FEB 24 2020 ELEVA CITY SKY/WX TMP DP RH WIND PRES REMARKS 150 BELLINGHAM PTCLDY 38 29 70 CALM 30.60S 100 ARLINGTON CLOUDY 39 37 92 CALM 30.62R 610 EVERETT CLOUDY 42 31 64 E3 30.60S 30 SEATAC AIRPORT MOCLDY 44 32 62 NE7 30.60R 200 OLYMPIA CLOUDY 42 33 70 CALM 30.60R 20 KELSO CLOUDY 46 38 73 CALM 30.62S 100 VANCOUVER CLOUDY 47 35 63 VRB6 30.61F 40 PORTLAND CLOUDY 47 36 65 E3 30.62S 200 SALEM PTCLDY 41 31 67 N6 30.59S 360 EUGENE CLEAR 41 34 76 N9 30.58S 510 ROSEBURG CLEAR 47 35 63 CALM 30.55R 1,300 MEDFORD CLEAR 48 31 51 S6 30.48R
Data from:
http://www.wrh.noaa.gov/sew/get.php?pil=RWR&sid=OR&version=0&format=printer
http://www.wrh.noaa.gov/sew/get.php?pil=RWR&sid=WA&version=0&format=printer

Current Observations

Washington State Current Weather Observations   …  Oregon State Current Weather Observation



48 Hour Forecast

Seattle  …  Vancouver  …  Portland
————————————————————————————————————————
Bend  …  Spokane  …  Richland  …  Pendleton  …  Blue Mountains I-84  …  Yakima
————————————————————————————————————————
Goldendale, Washington Higher Elevations  …  Dallesport Airport - Goldendale  …  Bingen - White Salmon - Hood River  …  Index


Top of Page